BEIDOU-3 M24

Last updated on Mon Jun 22 2026 00:02:55 GMT+0000 (Coordinated Universal Time)

1 44542U 19061A 26172.00112345 .00000076 00000+0 00000+0 0 9991 2 44542 54.3964 182.5989 0008377 358.6905 1.3314 1.86229071 45866
UTC large
Height (km)
Speed (km/s)
/
Latitude / Longitude
Inclination (degrees)
Orbital Period (minutes)
Azimuth
Elevation
Range (km)
Doppler Factor

Next 0 passes for location: London (51.5072 / 0.1276)

No passes found over London.
BEIDOU-3 M24